Wind_Speed
20 18 20 21 21 22 31 31 26 22 23 23 26 29 31 43 47 42 43 37 38 37 34 30 34 39 39 38 36 33 29 29 30
21 18 17 17 18 21 24 32 33 31 26 26 26 28 31 30 37 43 50 48 42 43 42 40 38 40 40 43 41 40 39 40 37
21 18 15 13 13 17 21 24 29 35 34 31 30 30 30 28 30 33 40 45 52 50 48 47 45 44 46 47 47 45 42 41 39
23 16 16 16 14 11 15 21 26 27 28 31 35 36 34 36 35 33 33 38 41 47 53 54 52 52 54 51 48 49 46 45 44
21 19 19 19 18 17 16 17 20 25 28 29 30 32 36 39 41 40 39 39 37 44 48 49 50 49 51 53 52 53 55 53 52
24 20 18 18 17 17 18 20 21 23 25 28 30 33 35 37 40 43 46 45 48 47 46 49 54 55 53 50 51 56 56 56 53
23 20 20 23 23 25 24 25 26 28 29 30 31 33 35 39 42 42 47 48 50 50 50 55 50 54 54 53 53 52 50 49 46
24 27 29 30 30 31 32 32 32 33 33 34 37 39 40 42 43 46 50 52 54 55 57 55 55 58 54 55 55 52 49 47 44
31 32 33 34 35 35 35 36 38 40 41 42 42 43 44 44 47 52 54 55 57 59 62 62 61 60 60 59 57 56 54 50 47
35 37 36 37 38 39 40 43 45 47 48 50 51 51 52 54 54 56 55 57 62 64 65 65 67 67 64 62 63 65 62 57 55
37 40 41 42 44 45 48 50 52 54 55 56 56 57 57 58 61 63 65 63 61 63 69 69 68 68 68 66 64 66 66 62 56
41 43 46 49 51 53 55 58 59 61 61 60 61 62 63 63 65 68 69 70 69 68 66 70 76 74 73 71 70 67 63 57 59
48 50 53 56 58 60 61 64 64 65 66 67 69 69 69 68 67 66 67 69 72 72 72 72 70 77 78 77 74 73 68 58 56
54 56 60 62 64 66 67 69 71 70 69 69 68 68 67 62 60 58 57 59 65 69 71 73 75 75 77 80 79 76 72 64 60
58 62 65 68 69 69 68 67 67 66 64 63 64 62 62 58 55 52 52 54 59 61 65 70 73 77 78 82 79 78 77 71 66
63 65 65 65 66 67 66 63 61 60 58 54 54 55 56 55 51 46 47 49 52 54 59 62 66 74 79 82 86 86 87 80 72
62 63 63 63 63 62 57 55 50 47 46 47 49 51 54 51 47 44 43 44 47 49 52 56 63 68 75 81 85 92 91 91 85
61 60 62 60 62 59 56 47 43 35 43 43 47 51 52 48 45 44 42 42 45 43 43 45 51 62 69 75 82 89 93 95 93
57 58 59 59 58 58 55 46 41 35 41 45 47 49 49 51 48 43 41 41 42 41 38 37 40 48 58 66 77 86 92 97 97
56 58 58 58 56 56 52 42 40 35 41 45 42 46 51 53 54 45 42 40 39 39 36 37 36 38 43 49 63 76 86 94 102
Wind_Direction
268 252 249 249 241 233 219 217 215 208 218 229 227 229 227 232 241 236 233 236 239 236 235 240 254 242 240 248 253 262 265 263 267
276 272 271 265 258 246 238 225 222 223 216 217 228 230 230 235 234 238 237 238 239 242 240 239 243 246 249 252 256 257 263 267 265
266 264 266 270 267 247 233 236 233 230 231 233 235 235 237 237 240 241 242 242 243 243 243 244 246 248 251 252 254 260 262 263 265
270 253 258 265 269 261 241 237 235 236 236 238 240 240 242 242 244 243 240 240 247 248 247 248 249 250 252 253 255 257 255 258 265
254 246 253 261 265 269 265 251 243 241 240 243 242 244 245 245 243 245 248 243 238 241 239 241 243 246 248 251 252 252 257 258 259
257 255 252 259 263 260 266 272 269 263 256 252 250 251 252 251 249 245 245 246 246 244 242 245 246 247 248 247 250 253 257 257 257
252 257 268 273 273 271 264 259 253 258 262 263 262 260 256 255 255 253 251 248 248 249 247 245 247 247 249 252 253 252 252 251 249
271 275 280 284 287 287 285 284 281 276 270 265 262 262 262 262 261 256 253 253 248 247 248 248 249 247 247 248 248 247 249 247 245
266 274 277 279 280 281 282 283 283 284 283 283 281 279 274 267 259 257 257 255 255 252 251 250 247 249 249 247 246 247 247 246 245
267 274 279 282 286 288 289 288 287 286 286 286 285 283 280 277 274 271 263 253 252 253 253 251 248 248 249 250 250 250 250 251 246
276 281 285 288 289 288 287 287 286 286 285 285 283 281 278 276 274 272 270 267 259 249 250 252 252 250 248 249 249 251 250 251 251
280 285 288 289 288 288 289 289 288 286 286 284 282 280 280 278 276 274 270 266 262 258 252 247 245 248 248 247 247 249 245 246 248
286 286 287 287 288 288 288 288 288 287 287 287 286 286 285 284 282 277 272 267 263 258 253 249 244 242 245 247 247 246 247 240 239
288 289 290 291 291 291 291 289 288 287 286 286 286 286 287 287 284 279 274 267 261 257 253 248 245 241 239 241 243 244 245 241 238
291 294 295 294 293 293 291 289 288 286 285 285 285 286 288 291 288 280 272 266 262 258 256 252 246 242 238 236 237 240 240 238 239
296 295 295 296 296 295 294 291 287 283 283 284 285 287 290 296 291 283 274 268 264 262 260 257 253 246 241 235 233 235 239 235 235
296 296 297 300 301 301 298 291 285 283 282 282 284 289 297 302 296 289 278 269 267 267 265 262 257 252 244 239 234 233 232 237 232
299 301 303 304 305 302 300 288 281 278 281 285 286 289 298 300 305 296 284 275 273 272 275 270 261 255 248 242 238 233 230 232 235
302 303 305 306 306 306 301 286 272 274 286 282 286 288 297 301 307 304 294 283 275 271 275 277 273 263 255 248 240 236 231 228 233
305 306 308 305 306 307 303 276 263 281 282 282 287 291 297 301 309 306 300 290 276 272 274 281 282 273 262 251 246 239 234 229 229
Height
10920 10920 10920 10921 10922 10924 10925 10927 10930 10932 10933 10935 10937 10939 10942 10945 10946 10951 10956 10960 10963 10966 10968 10969 10971 10975 10979 10980 10980 10982 10984 10986 10988
10919 10919 10920 10920 10921 10922 10922 10923 10924 10927 10929 10931 10933 10935 10936 10937 10940 10942 10946 10950 10954 10956 10959 10961 10962 10965 10968 10971 10972 10974 10975 10977 10980
10917 10916 10917 10918 10917 10916 10917 10919 10921 10923 10925 10928 10929 10930 10931 10933 10934 10936 10939 10941 10944 10946 10949 10953 10956 10956 10958 10960 10963 10964 10966 10966 10969
10915 10913 10914 10914 10913 10912 10913 10914 10915 10917 10919 10921 10922 10923 10922 10923 10926 10928 10928 10931 10935 10935 10939 10942 10944 10946 10947 10949 10952 10953 10955 10956 10958
10911 10909 10909 10909 10909 10909 10909 10909 10910 10911 10912 10913 10914 10914 10916 10916 10916 10917 10918 10920 10921 10922 10924 10927 10930 10933 10934 10938 10937 10941 10941 10944 10947
10906 10905 10905 10905 10905 10905 10904 10903 10903 10903 10904 10905 10906 10906 10906 10906 10907 10907 10906 10908 10907 10913 10914 10916 10918 10920 10922 10924 10927 10929 10929 10931 10934
10901 10899 10899 10898 10899 10898 10898 10897 10897 10897 10896 10896 10897 10897 10897 10897 10897 10897 10897 10898 10898 10899 10901 10904 10906 10908 10909 10911 10913 10915 10917 10920 10923
10892 10892 10891 10890 10889 10888 10887 10886 10885 10886 10887 10887 10888 10887 10887 10886 10885 10884 10884 10884 10885 10886 10887 10889 10890 10892 10895 10897 10900 10902 10905 10910 10912
10886 10886 10884 10883 10881 10879 10877 10876 10874 10872 10871 10871 10870 10870 10870 10870 10871 10870 10869 10869 10870 10870 10872 10874 10875 10877 10881 10884 10886 10888 10893 10898 10901
10880 10877 10875 10873 10870 10868 10865 10863 10861 10859 10858 10856 10854 10854 10852 10850 10849 10848 10849 10851 10851 10852 10854 10856 10859 10862 10865 10868 10872 10874 10879 10884 10889
10870 10866 10863 10860 10858 10855 10853 10850 10848 10844 10843 10841 10839 10836 10834 10832 10830 10827 10826 10827 10829 10833 10834 10836 10839 10843 10848 10851 10854 10858 10863 10868 10877
10858 10855 10851 10848 10845 10842 10838 10834 10831 10827 10825 10824 10821 10818 10814 10811 10808 10806 10803 10803 10804 10806 10811 10814 10818 10822 10826 10832 10835 10840 10845 10853 10860
10845 10843 10839 10834 10831 10827 10823 10816 10812 10808 10804 10801 10796 10794 10791 10788 10784 10781 10778 10776 10776 10779 10784 10789 10794 10799 10804 10810 10815 10821 10828 10838 10845
10832 10828 10823 10817 10811 10807 10802 10796 10790 10786 10783 10778 10774 10770 10768 10765 10760 10756 10754 10751 10749 10751 10756 10761 10767 10774 10781 10787 10794 10802 10811 10820 10829
10818 10811 10805 10798 10792 10786 10780 10775 10769 10764 10760 10757 10754 10750 10747 10744 10739 10735 10732 10730 10728 10730 10732 10734 10740 10747 10754 10763 10773 10780 10788 10800 10810
10800 10794 10787 10780 10772 10765 10759 10753 10748 10743 10740 10738 10735 10732 10730 10726 10719 10716 10713 10713 10711 10711 10711 10713 10715 10721 10728 10737 10748 10754 10766 10778 10787
10783 10776 10769 10762 10753 10746 10739 10733 10728 10725 10724 10722 10720 10718 10714 10708 10702 10699 10696 10695 10694 10694 10693 10692 10693 10695 10700 10711 10719 10730 10743 10749 10764
10766 10759 10751 10744 10735 10728 10722 10716 10713 10710 10710 10708 10705 10704 10700 10695 10690 10684 10681 10679 10677 10676 10676 10674 10673 10671 10676 10683 10692 10703 10716 10726 10739
10751 10745 10738 10730 10722 10712 10705 10699 10698 10696 10695 10694 10691 10690 10687 10682 10676 10671 10666 10663 10662 10660 10660 10658 10655 10652 10654 10659 10665 10674 10687 10702 10715
10737 10730 10722 10714 10708 10700 10691 10685 10684 10683 10682 10680 10679 10676 10673 10668 10662 10657 10652 10649 10646 10645 10645 10643 10641 10638 10637 10638 10640 10649 10659 10674 10690